Location: Newark
(52.3500°N, 175.9667°E)
Time: 10:19:24
(UTC+00:00)

Transit 4A - Pass Details

Date: 26 April 2021
Orbit: 870 x 974 km, 66.8° (Epoch: 07 May)

Event Time Altitude Azimuth Distance (km) Brightness Sun altitude
Rises 17:31:46 0° 319° (NW) 3,536 10.7 4.6°
Reaches altitude 10° 17:34:24 10° 325° (NW) 2,578 10.1 5.0°
Maximum altitude 17:40:11 51° 41° (NE) 1,107 9.0 5.8°
Drops below altitude 10° 17:45:51 10° 117° (ESE) 2,522 11.1 6.7°
Sets 17:48:23 0° 123° (ESE) 3,453 11.6 7.0°
